Fort Lauderdale, FL

5:40 PM EDT on June 25, 2017 (GMT -0400)
Fort Lauderdale Executive

Weather History for KFXE - January, 2013

Change the Weather History Date:

Saturday, January 12, 2013

  Actual Average Record
Temperature  
Mean Temperature 76 °F -  
Max Temperature 81 °F 76 °F 87 °F (2012)
Min Temperature 71 °F 56 °F 31 °F (1982)
Cooling Degree Days 11    
Growing Degree Days 26 (Base 50)    
Moisture  
Dew Point 65 °F    
Average Humidity 71    
Maximum Humidity 81    
Minimum Humidity 60    
Precipitation  
Precipitation 0.00 in - - ()
Sea Level Pressure  
Sea Level Pressure 30.14 in    
Wind  
Wind Speed 10 mph (ESE)    
Max Wind Speed 16 mph    
Max Gust Speed 23 mph    
Visibility 10 miles    
Events      
Averages and records for this station are not official NWS values.
T = Trace of Precipitation, MM = Missing Value Source: NWS Daily Summary

Daily Weather History Graph

Daily Weather History Graph

Search for Another Location

Airport or City:

Trip Planner

Search our weather history database for the weather conditions in past years. The results will help you decide how hot, cold, wet, or windy it might be!

Date:

Astronomy

Jan. 12, 2013 Rise Set
Actual Time 7:09 AM EST 5:48 PM EST
Civil Twilight 6:44 AM EST 6:13 PM EST
Nautical Twilight 6:16 AM EST 6:41 PM EST
Astronomical Twilight 5:48 AM EST 7:09 PM EST
Moon 7:36 AM EST (1/12) 7:04 PM EST (1/12)
Length of Visible Light 11h 28m
Length of Day
10h 38m
New Moon, 1% of the Moon is Illuminated
Jan 12
New Moon
Jan 18
First Quarter
Jan 26
Full
Feb 3
Last Quarter
Feb 10
New

Hourly Weather History & Observations

Time (EST) Temp. Heat Index Dew Point Humidity Pressure Visibility Wind Dir Wind Speed Gust Speed Precip Events Conditions
12:53 AM 75.0 °F - 68.0 °F 79% 30.17 in 10.0 mi ESE 11.5 mph - N/A   Scattered Clouds
1:53 AM 73.9 °F - 66.9 °F 79% 30.16 in 10.0 mi East 11.5 mph - N/A   Scattered Clouds
2:53 AM 73.9 °F - 66.9 °F 79% 30.15 in 10.0 mi ESE 5.8 mph - N/A   Scattered Clouds
3:53 AM 73.9 °F - 66.0 °F 76% 30.14 in 10.0 mi ESE 10.4 mph - N/A   Scattered Clouds
4:53 AM 73.9 °F - 66.9 °F 79% 30.14 in 10.0 mi ESE 6.9 mph - N/A   Mostly Cloudy
5:53 AM 73.0 °F - 66.9 °F 81% 30.14 in 10.0 mi ESE 6.9 mph - N/A   Mostly Cloudy
6:53 AM 72.0 °F - 66.0 °F 81% 30.16 in 10.0 mi East 4.6 mph - N/A   Partly Cloudy
7:53 AM 73.0 °F - 66.0 °F 79% 30.17 in 10.0 mi ESE 5.8 mph - N/A   Partly Cloudy
8:53 AM 75.9 °F - 64.9 °F 69% 30.18 in 10.0 mi ESE 13.8 mph - N/A   Scattered Clouds
9:53 AM 79.0 °F - 64.9 °F 62% 30.20 in 10.0 mi ESE 15.0 mph - N/A   Mostly Cloudy
10:53 AM 77.0 °F - 66.9 °F 71% 30.18 in 10.0 mi ESE 12.7 mph - 0.00 in   Mostly Cloudy
11:53 AM 81.0 °F 83.0 °F 66.0 °F 60% 30.16 in 10.0 mi East 16.1 mph 23.0 mph N/A   Mostly Cloudy
12:53 PM 79.0 °F - 64.9 °F 62% 30.14 in 10.0 mi East 13.8 mph - N/A   Scattered Clouds
1:53 PM 79.0 °F - 64.9 °F 62% 30.12 in 10.0 mi ESE 11.5 mph - N/A   Scattered Clouds
2:53 PM 79.0 °F - 64.0 °F 60% 30.11 in 10.0 mi ESE 12.7 mph - N/A   Scattered Clouds
3:53 PM 78.1 °F - 64.9 °F 64% 30.11 in 10.0 mi ESE 10.4 mph - N/A   Scattered Clouds
4:53 PM 78.1 °F - 64.9 °F 64% 30.12 in 10.0 mi East 10.4 mph - N/A   Scattered Clouds
5:53 PM 75.0 °F - 64.9 °F 71% 30.13 in 10.0 mi East 9.2 mph - N/A   Scattered Clouds
6:53 PM 73.9 °F - 64.0 °F 71% 30.13 in 10.0 mi East 6.9 mph - N/A   Clear
7:53 PM 73.0 °F - 63.0 °F 71% 30.14 in 10.0 mi East 5.8 mph - N/A   Clear
8:53 PM 73.0 °F - 63.0 °F 71% 30.14 in 10.0 mi ENE 3.5 mph - N/A   Partly Cloudy
9:53 PM 73.0 °F - 62.1 °F 68% 30.13 in 10.0 mi ENE 4.6 mph - N/A   Clear
10:53 PM 71.1 °F - 62.1 °F 73% 30.13 in 10.0 mi East 5.8 mph - N/A   Clear
11:53 PM 73.0 °F - 64.0 °F 73% 30.11 in 10.0 mi East 9.2 mph - N/A   Scattered Clouds